Probability
0 0 0 0 0 0 0 0 0 0 0 0 0 0 0 0 0 0 0 0 0 0 0 0 0 0 0 0 0 0 0 0 0 0 0 0 0 0
0 0 0 0 0 0 0 0 0 0 0 0 0 0 0 0 0 0 0 0 0 0 0 0 0 0 0 0 0 0 0 0 0 0 0 0 0 0
0 0 0 0 0 0 0 0 0 0 0 0 0 0 0 0 0 0 0 0 0 0 0 0 0 0 0 0 0 0 0 0 0 0 0 0 0 0
0 0 0 0 0 0 0 0 0 0 0 0 0 0 0 0 0 0 0 0 0 0 0 0 0 0 0 0 0 0 0 0 0 0 0 0 0 0
0 0 0 0 0 0 0 0 0 0 0 0 0 0 0 0 0 0 0 0 0 0 0 0 0 0 0 0 0 0 0 0 0 0 0 0 0 0
0 0 0 0 0 0 0 0 0 0 0 0 0 0 0 0 0 0 0 0 0 0 0 0 0 0 0 0 0 0 0 0 0 0 0 0 0 0
0 0 0 0 0 0 0 0 0 0 0 0 0 0 0 0 0 0 0 0 0 0 0 0 0 0 0 0 0 0 0 0 0 0 0 0 0 0
0 0 0 0 0 0 0 0 0 0 0 0 0 0 0 0 0 0 0 0 0 0 0 0 0 0 0 0 0 0 0 0 0 0 0 0 0 0
0 0 0 0 0 0 0 0 0 0 0 0 0 0 0 0 0 0 0 0 0 0 0 0 0 0 0 0 0 0 0 0 0 0 0 0 0 0
0 0 0 0 0 0 0 0 0 0 0 0 0 0 0 0 0 0 0 0 0 0 0 0 0 0 0 0 0 0 0 0 0 0 0 0 0 0
0 0 0 0 0 0 0 0 0 0 0 0 0 0 0 0 0 0 0 0 0 0 0 0 0 0 0 0 0 0 0 0 0 0 0 0 0 0
0 0 0 0 0 0 0 0 0 0 0 0 0 0 0 0 0 0 0 0 0 0 0 0 0 0 0 0 0 0 0 0 0 0 0 0 0 0
0 0 0 0 0 0 0 0 0 0 0 0 0 0 0 0 0 0 0 0 0 0 0 0 0 0 0 0 0 0 0 0 0 0 0 0 0 0
0 0 0 0 0 0 0 0 0 0 0 0 0 0 0 0 0 0 0 0 0 0 0 0 0 0 0 0 0 0 0 0 0 0 0 0 0 0
0 0 0 0 0 0 0 0 0 0 0 0 0 0 0 0 0 0 0 0 0 0 0 0 0 0 0 0 0 0 0 0 0 0 0 0 0 0
0 0 0 0 0 0 0 0 0 0 0 0 0 0 0 0 0 0 0 0 0 0 0 0 0 0 0 0 0 0 0 0 0 0 0 0 0 0
0 0 0 0 0 0 0 0 0 0 0 0 0 0 0 0 0 0 0 0 0 0 0 0 0 0 0 0 0 0 0 0 0 0 0 0 0 0
0 0 0 0 0 0 0 0 0 0 0 0 0 0 0 0 0 0 0 0 0 0 0 0 0 0 0 0 0 0 0 0 0 0 0 0 0 0
0 0 0 0 0 0 0 0 0 0 0 0 0 0 0 0 0 0 0 0 0 0 0 0 0 0 0 0 0 0 0 0 0 0 0 0 0 0
0 0 0 0 0 0 0 0 0 0 0 0 0 0 0 0 0 0 0 0 0 0 0 0 0 0 0 0 0 0 0 0 0 0 0 0 0 0
0 0 0 0 0 0 0 0 0 0 0 0 0 0 0 0 0 0 0 0 0 0 0 0 0 0 0 0 0 0 0 0 0 0 0 0 0 0
0 0 0 0 0 0 0 0 0 0 0 0 0 0 0 0 0 0 0 0 0 0 0 0 0 0 0 0 0 0 0 0 0 0 0 0 0 0
0 0 0 0 0 0 0 0 0 0 0 0 0 0 0 0 0 0 0 0 0 0 0 0 0 0 0 0 0 0 0 0 0 0 0 0 0 0
Wind_Speed
4 4 2 2 2 2 3 4 5 3 3 3 1 1 1 1 1 1 1 1 1 1 2 2 2 3 3 3 2 2 1 1 1 2 2 3 4 5
3 4 3 2 2 2 3 2 3 4 3 3 2 1 1 1 2 1 1 2 2 2 2 2 2 2 3 3 2 2 1 1 1 2 2 3 4 5
3 4 4 3 3 2 2 2 2 3 3 1 1 1 1 2 1 0 0 0 1 1 1 2 2 2 2 2 2 1 1 0 1 2 3 4 5 5
5 4 4 3 4 3 3 3 3 3 3 3 2 1 2 2 2 1 0 0 0 0 1 1 1 1 1 1 1 1 1 1 1 2 3 4 5 6
5 5 5 5 5 3 4 3 3 3 3 3 2 1 1 1 1 0 0 0 1 0 0 0 1 1 0 1 1 2 1 1 1 2 3 4 6 6
5 5 5 6 6 5 4 4 4 3 3 3 3 2 1 1 2 1 1 1 1 1 1 1 1 1 1 1 1 1 1 2 2 3 3 4 5 6
4 4 5 5 6 6 5 5 5 4 4 3 3 2 2 2 3 2 2 1 1 1 0 1 1 1 1 1 1 1 2 2 3 4 4 5 5 6
4 4 3 4 5 6 6 6 7 6 6 5 3 4 4 3 3 3 2 2 2 1 1 1 0 1 1 1 2 2 2 3 4 4 5 5 6 7
5 4 3 3 4 3 4 4 4 5 6 6 6 5 5 5 5 4 4 3 3 2 1 1 1 2 2 2 3 3 3 3 4 5 5 6 7 8
5 5 5 4 4 5 4 3 2 2 3 3 4 4 4 4 5 5 4 2 1 0 1 2 1 2 2 2 3 3 3 4 5 6 6 7 8 9
3 4 5 5 6 7 5 5 3 2 1 3 3 3 4 5 5 4 3 2 1 1 1 2 1 1 2 2 3 3 3 4 6 7 7 8 9 8
3 3 5 5 6 7 6 6 5 3 3 3 2 2 2 3 4 4 4 3 2 2 2 2 1 0 2 2 2 2 2 4 6 7 8 9 9 5
3 3 3 5 6 7 5 5 6 5 4 4 3 2 2 1 1 1 2 3 3 2 2 2 1 1 1 2 2 2 2 2 3 4 7 9 9 6
4 3 3 5 6 6 4 4 5 5 3 3 2 2 2 1 1 1 1 1 1 2 3 2 2 2 2 2 3 2 2 2 2 3 3 7 8 9
3 4 5 5 5 4 4 5 5 3 4 3 3 2 2 2 2 1 1 2 2 2 1 1 2 2 2 3 3 2 2 3 2 2 3 4 4 4
3 4 5 4 3 3 3 2 2 3 3 3 3 2 2 2 2 1 1 1 1 1 1 0 1 2 2 3 3 3 3 3 2 3 4 4 4 3
4 3 3 3 2 2 2 2 2 2 2 2 3 3 2 2 1 1 1 1 1 1 1 1 1 1 3 3 3 4 3 3 3 3 3 5 5 4
5 3 3 3 4 3 3 2 2 2 2 3 3 3 3 3 2 1 1 1 1 1 1 1 1 1 2 2 4 4 3 3 3 3 3 5 6 4
3 3 3 3 3 3 3 3 2 2 2 3 3 3 3 3 2 2 2 1 1 1 1 1 1 1 2 4 3 3 3 3 3 3 3 4 6 7
2 2 2 2 3 3 2 2 2 2 2 2 3 3 3 3 3 3 2 2 2 2 1 1 2 2 3 4 3 3 3 3 3 4 4 4 5 8
2 2 2 2 2 2 2 2 2 2 2 2 2 3 3 3 3 2 2 3 2 2 3 3 3 3 1 1 2 4 3 4 4 4 4 4 5 5
1 1 1 1 2 2 2 2 2 2 3 2 2 2 2 3 3 3 3 2 2 3 3 2 1 1 1 2 4 4 4 4 5 7 7 6 4 4
1 1 1 1 1 2 2 2 3 2 2 3 2 2 2 2 2 2 2 3 2 2 2 2 1 2 2 3 3 4 5 5 4 4 4 7 9 11
Wind_Direction
187 181 176 180 173 164 154 157 156 178 217 221 216 211 183 155 150 136 134 104 93 70 53 53 59 61 63 54 57 49 60 47 25 3 355 351 345 341
185 180 184 182 172 163 164 165 158 162 193 207 205 189 168 142 143 133 148 109 98 95 81 78 79 73 66 59 55 52 68 61 25 1 347 338 333 331
188 187 194 182 179 174 166 163 160 152 176 214 174 152 152 159 152 139 112 108 105 100 94 105 101 85 72 60 43 33 31 24 356 343 336 331 327 323
193 189 199 186 189 177 173 181 177 170 165 188 188 173 186 178 167 161 150 108 201 113 131 131 131 113 84 53 28 9 359 358 349 339 333 329 325 320
194 194 199 190 198 186 180 187 184 171 165 168 183 172 187 172 144 129 102 321 315 298 135 178 214 206 280 10 15 13 4 348 341 334 330 328 326 323
201 198 197 198 200 191 188 190 179 169 162 165 172 174 174 167 158 181 216 228 292 336 300 280 263 262 276 349 19 9 356 343 330 322 322 322 321 320
205 203 202 202 200 194 189 185 176 173 170 174 180 173 183 179 195 185 200 196 277 257 265 290 288 295 297 292 315 324 335 334 327 320 317 315 313 314
203 203 199 194 194 194 194 187 184 181 184 182 190 197 208 198 178 179 177 176 237 224 182 267 255 263 275 264 264 278 295 315 318 317 316 315 313 313
202 195 197 194 183 177 183 185 193 200 194 187 190 200 199 195 177 185 193 194 213 209 168 245 260 259 265 265 261 266 291 308 311 307 308 311 313 312
199 195 195 193 191 181 170 170 178 198 203 192 190 199 199 187 181 182 178 154 93 317 164 217 254 261 282 282 262 262 283 295 305 304 304 309 309 307
193 191 190 190 191 181 170 168 170 178 146 154 153 155 163 168 161 142 151 155 206 243 200 184 234 279 282 275 271 275 285 293 303 307 308 310 309 309
178 186 194 190 184 181 179 173 180 186 157 142 117 99 122 146 160 170 173 175 178 218 206 177 196 242 291 280 281 289 298 300 306 307 310 311 313 307
180 186 187 184 183 185 188 185 186 170 155 152 146 128 113 118 141 152 166 174 182 208 189 164 177 192 222 277 287 278 272 286 300 301 308 312 313 311
181 178 177 176 176 177 180 172 161 150 142 145 146 155 162 167 153 137 131 122 134 181 176 166 181 194 207 255 268 278 285 277 275 290 300 310 310 309
164 159 160 165 168 171 171 164 156 153 150 155 169 175 168 158 137 118 89 86 65 51 121 181 185 198 213 235 254 261 283 286 279 290 300 299 296 300
143 137 141 143 137 134 148 161 163 165 163 168 164 149 133 130 134 146 158 156 132 343 344 252 215 203 229 244 243 258 251 259 281 294 298 293 288 277
144 131 136 142 144 145 138 135 143 148 154 148 147 144 145 145 150 152 151 152 184 218 273 317 306 262 241 236 252 254 256 261 264 282 295 295 288 278
153 159 165 165 166 169 167 164 167 168 163 155 156 158 163 168 166 161 160 173 195 219 227 250 320 332 317 276 232 245 258 262 273 279 280 287 290 287
157 157 163 168 167 166 170 172 181 171 157 157 162 164 168 172 171 173 178 190 212 227 234 215 217 217 268 280 278 220 244 276 287 286 278 276 285 294
142 150 162 167 165 166 170 169 167 160 159 163 165 169 175 178 181 186 192 202 213 224 242 234 223 223 232 254 272 278 265 267 275 283 289 286 282 291
146 151 161 167 164 164 166 166 167 171 171 173 176 177 181 181 189 197 201 213 217 221 239 253 253 265 257 280 282 278 276 275 276 277 286 294 298 298
148 155 161 168 169 166 165 163 166 175 176 180 181 181 184 186 190 192 197 207 221 230 246 264 265 244 215 242 266 279 292 301 298 295 285 269 272 281
158 167 167 170 174 171 171 173 179 188 189 186 186 186 187 193 198 199 205 212 219 227 238 254 256 251 251 251 266 280 289 297 302 305 298 295 293 292